Regional Weather Roundup
Issued by NWS Boston, MA

Home | Current Version | Previous Version | Text Only | Print | Product List | Glossary On
Versions: 1 2 3 4 5 6 7 8 9 10 11 12 13 14 15 16 17 18 19 20 21 22 23 24 25 26 27 28
000
ASUS41 KBOX 261110
RWRBOX

REGIONAL WEATHER ROUNDUP
NATIONAL WEATHER SERVICE TAUNTON MA
700 AM EDT MON SEP 26 2016

NOTE:  "FAIR" INDICATES FEW OR NO CLOUDS BELOW 12,000 FEET WITH NO
SIGNIFICANT WEATHER AND/OR OBSTRUCTIONS TO VISIBILITY.

MAZALL-261200-
EASTERN MASSACHUSETTS

CITY           SKY/WX    TMP DP  RH WIND       PRES   REMARKS
BOSTON         PTCLDY    49  39  68 NW7       30.22R
BEVERLY        CLEAR     40  39  97 CALM      30.21R
LAWRENCE       CLEAR     40  38  93 CALM      30.24R
BEDFORD        CLEAR     34  30  85 CALM      30.22R
BLUE HILL      NOT AVBL
NORWOOD        PTCLDY    31  29  92 CALM      30.22R
MARSHFIELD     CLEAR     41  39  93 W5        30.21R
PLYMOUTH       CLEAR     39  37  92 CALM      30.21R
TAUNTON        FOG       31  30  96 CALM      30.22R VSB 1/4
NEW BEDFORD    CLEAR     38  35  89 CALM      30.20R
$$

MAZALL-261200-
CAPE COD AND THE ISLANDS

CITY           SKY/WX    TMP DP  RH WIND       PRES   REMARKS
FALMOUTH       CLEAR     41  37  87 CALM      30.19S
HYANNIS        CLEAR     41  37  86 CALM      30.19R
CHATHAM        CLEAR     44  41  89 CALM      30.20R
PROVINCETOWN   PTCLDY    55  41  59 N9        30.21R
NANTUCKET      CLEAR     46  39  76 N5        30.19R
MARTHAS VNYRD  CLEAR     35  33  92 N5        30.20R WCI  31
$$

MAZALL-261200-
CENTRAL AND WESTERN MASSACHUSETTS

CITY           SKY/WX    TMP DP  RH WIND       PRES   REMARKS
WORCESTER      CLEAR     41  34  76 NW5       30.22R
FITCHBURG      HAZE      40  35  83 N5        30.24R VSB 1
ORANGE         CLOUDY    32  32 100 CALM      30.24R FOG
SPRINGFIELD    PTCLDY    31  30  99 NE3       30.22R
WESTFIELD      CLEAR     36  35  96 VRB5      30.23S
NORTH ADAMS    CLEAR     32  30  92 CALM      30.23S
PITTSFIELD     FOG       33  32  96 CALM      30.21S VSB<1/4
$$

RIZALL-261200-
RHODE ISLAND

CITY           SKY/WX    TMP DP  RH WIND       PRES   REMARKS
PROVIDENCE     PTCLDY    44  38  79 CALM      30.23R
NEWPORT        CLEAR     44  40  85 CALM      30.21R
BLOCK ISLAND   CLEAR     52  47  83 N3        30.22R
SMITHFIELD     CLEAR     36  35  96 CALM      30.22R
WESTERLY       CLEAR     38  35  89 N3        30.22R
$$

CTZALL-261200-
CONNECTICUT

CITY           SKY/WX    TMP DP  RH WIND       PRES   REMARKS
BRADLEY INTL   PTCLDY    38  35  89 N3        30.23R
HARTFORD       CLEAR     41  39  93 NE6       30.23R
BRIDGEPORT     CLEAR     50  43  77 NE7       30.21R
DANBURY        CLEAR     37  35  92 CALM      30.23R
GROTON         CLEAR     45  39  79 N8        30.22R
NEW HAVEN      PTCLDY    43  39  86 N5        30.22R
CHESTER        FAIR      43  37  81 N3        30.22R
MERIDEN        CLEAR     40  36  86 CALM      30.23R
WILLIMANTIC    MOCLDY    37  36  96 N3        30.24R
OXFORD         PTCLDY    39  34  81 CALM      30.22R
$$

MEZ002-015-021-024-NHZ003-005-008-011-012-014-VTZ005-008-261200-
NORTHERN NEW ENGLAND

CITY           SKY/WX    TMP DP  RH WIND       PRES   REMARKS
PORTLAND ME    PTCLDY    41  35  79 W3        30.21R
BANGOR ME      PTCLDY    35  34  96 CALM      30.17R
CONCORD NH     PTCLDY    33  30  88 CALM      30.23R
MANCHESTER NH  PTCLDY    40  36  86 S3        30.22R
NASHUA NH      CLEAR     36  34  92 CALM      30.23R
PORTSMOUTH NH  PTCLDY    39  36  89 NW5       30.21R
JAFFREY NH     PTCLDY    32  30  92 CALM      30.23R
KEENE NH       FOG       32  32 100 CALM      30.25S VSB 1/4
BURLINGTON VT  PTCLDY    38  34  85 CALM      30.20S
MT. WASHINGTON PTCLDY    30  18  59 NW29        N/A  WCI  15
$$

NYZ052-076-261200-
EASTERN NEW YORK

CITY           SKY/WX    TMP DP  RH WIND       PRES   REMARKS
ALBANY         PTCLDY    38  36  92 CALM      30.23R FOG
NEW YORK CITY  PTCLDY    58  48  69 NE7       30.19R
$$

ANZALL-261200-
MARINE OBSERVATIONS

STATION/POSITION TIME  TEMP    WIND        PRES    VSBY  WAVE
                       AIR SEA DIR/SP/G                  HT/PER
                 (UTC) (F)     (DEG/KT/KT) (MB)    (MI)  (FT/S)
BOSTON BUOY      1050   55 64  340/  8/ 12 1022.1R         2/ 5
BUZZARDS BAY     1000   55      20/ 12/ 13 1022.6R
NANTUCKET SOUND  1050   59 68  350/  8/ 12 1022.1R         1/ 3
MASS BAY-STELLWA 1004   55 61  320/ 10/ 10 1021.8R  1 7/8  2/ 5
ISLE OF SHOALS   1000   48     310/ 11/ 12 1022.2R
S OF BLOCK IS    NOT AVBL
$$

......................KEY.........................
  SKY/WX - SKY CONDITION/PRESENT WEATHER
  TMP    - TEMPERATURE IN FAHRENHEIT
  DWPT   - DEWPOINT IN FAHRENHEIT
  RH     - RELATIVE HUMIDITY IN PERCENT
  WIND   - DIRECTION AND SPEED IN MPH
  PRES   - MEAN SEA LEVEL PRESSURE IN INCHES OF HG
  WCI    - WIND CHILL INDEX
  VSB    - VISIBILITY IN MILES
  HX     - HEAT INDEX
  TC     - TEMPERATURE IN CELSIUS
  VRB    - VARIABLE WIND DIRECTION
  N/A    - NOT AVAILABLE




USA.gov is the U.S. government's official web portal to all federal, state and local government web resources and services.